Time+0430,TemperatureF,Dew PointF,Humidity,Sea Level PressureIn,VisibilityMPH,Wind Direction,Wind SpeedMPH,Gust SpeedMPH,PrecipitationIn,Events,Conditions,WindDirDegrees,DateUTC
12:20 AM,42.8,24.8,49,30.04,6.2,North,6.9,-,N/A,,Partly Cloudy,350,2014-02-28 19:50:00
1:20 AM,41.0,26.6,57,30.04,6.2,North,8.1,-,N/A,,Partly Cloudy,10,2014-02-28 20:50:00
2:20 AM,41.0,26.6,57,30.04,6.2,North,9.2,-,N/A,,Partly Cloudy,10,2014-02-28 21:50:00
3:20 AM,41.0,26.6,57,30.01,6.2,North,10.4,-,N/A,,Partly Cloudy,10,2014-02-28 22:50:00
4:20 AM,39.2,26.6,61,30.01,6.2,North,8.1,-,N/A,,Partly Cloudy,360,2014-02-28 23:50:00
5:20 AM,41.0,26.6,57,30.04,6.2,ESE,5.8,-,N/A,,Partly Cloudy,110,2014-03-01 00:50:00
6:20 AM,39.2,26.6,61,30.04,6.2,East,4.6,-,N/A,,Partly Cloudy,80,2014-03-01 01:50:00
7:20 AM,41.0,26.6,57,30.06,6.2,NE,5.8,-,N/A,,Clear,50,2014-03-01 02:50:00
8:20 AM,46.4,26.6,46,30.09,6.2,NNE,10.4,-,N/A,,Partly Cloudy,30,2014-03-01 03:50:00
9:20 AM,51.8,19.4,28,30.09,6.2,East,10.4,-,N/A,,Partly Cloudy,100,2014-03-01 04:50:00
10:20 AM,57.2,21.2,25,30.09,6.2,East,9.2,-,N/A,,Partly Cloudy,80,2014-03-01 05:50:00
11:20 AM,59.0,17.6,20,30.09,6.2,East,10.4,-,N/A,,Partly Cloudy,90,2014-03-01 06:50:00
12:20 PM,62.6,12.2,14,30.09,6.2,ESE,3.5,-,N/A,,Partly Cloudy,120,2014-03-01 07:50:00
1:20 PM,66.2,14.0,13,30.04,6.2,East,4.6,-,N/A,,Partly Cloudy,90,2014-03-01 08:50:00
2:20 PM,64.4,12.2,13,30.04,6.2,East,6.9,-,N/A,,Scattered Clouds,90,2014-03-01 09:50:00
3:20 PM,68.0,14.0,12,30.01,6.2,SW,3.5,-,N/A,,Mostly Cloudy,230,2014-03-01 10:50:00
4:20 PM,64.4,12.2,13,30.01,6.2,South,2.3,-,N/A,,Mostly Cloudy,180,2014-03-01 11:50:00
5:20 PM,64.4,12.2,13,30.01,6.2,NW,3.5,-,N/A,,Mostly Cloudy,320,2014-03-01 12:50:00
6:20 PM,62.6,12.2,14,30.04,6.2,NNW,3.5,-,N/A,,Mostly Cloudy,330,2014-03-01 13:50:00
7:20 PM,60.8,19.4,20,30.04,6.2,NNE,1.2,-,N/A,,Mostly Cloudy,30,2014-03-01 14:50:00
8:20 PM,59.0,21.2,23,30.04,6.2,ENE,5.8,-,N/A,,Mostly Cloudy,70,2014-03-01 15:50:00
9:20 PM,55.4,21.2,26,30.04,6.2,NNE,6.9,-,N/A,,Scattered Clouds,20,2014-03-01 16:50:00
10:20 PM,51.8,24.8,35,30.04,6.2,NNE,9.2,-,N/A,,Scattered Clouds,30,2014-03-01 17:50:00
11:20 PM,51.8,23.0,33,30.04,6.2,North,8.1,-,N/A,,Partly Cloudy,10,2014-03-01 18:50:00